DW1114 Weather Reports


Display with metric or nautical units.
time (UTC)temp
F
wind
direction
speed
MPH
gust
MPH
rain 1hr
in
rain 24hr
in
rain mn
in
humidity
%
barometer
mb
20260510045945 63 226 0.0 4.0 0.00 0.00 0.00 1009.5
20260510045445 63 238 1.0 5.0 0.00 0.00 0.00 1009.9
20260510044903 63 284 0.0 5.0 0.00 0.00 0.00 1009.9
20260510044403 64 207 1.0 4.0 0.00 0.00 0.00 1010.2
20260510043903 64 233 0.0 4.0 0.00 0.00 0.00 1009.5
20260510043403 64 212 1.0 3.0 0.00 0.00 0.00 1009.5
20260510042903 64 247 0.0 5.0 0.00 0.00 0.00 1010.2
20260510042423 64 244 2.0 5.0 0.00 0.00 0.00 1009.9
20260510041903 64 265 0.0 4.0 0.00 0.00 0.00 1009.9
20260510041403 64 219 1.0 3.0 0.00 0.00 0.00 1009.9
20260510040903 63 215 0.0 6.0 0.00 0.00 0.00 1009.9
20260510040404 63 210 0.0 6.0 0.00 0.00 0.00 1009.9
20260510035903 63 246 0.0 5.0 0.00 0.00 0.00 1009.9
20260510035403 63 238 0.0 4.0 0.00 0.00 0.00 1009.5
20260510034903 63 225 0.0 3.0 0.00 0.00 0.00 1009.2
20260510034426 63 209 1.0 6.0 0.00 0.00 0.00 1009.5
20260510033902 63 281 0.0 6.0 0.00 0.00 0.00 1009.2
20260510033403 64 245 0.0 3.0 0.00 0.00 0.00 1009.2
20260510032902 63 207 1.0 5.0 0.00 0.00 0.00 1009.2
20260510032403 64 232 2.0 5.0 0.00 0.00 0.00 1009.2
20260510031904 63 258 0.0 5.0 0.00 0.00 0.00 1009.2
20260510031402 64 292 0.0 6.0 0.00 0.00 0.00 1009.5
20260510030903 64 258 0.0 6.0 0.00 0.00 0.00 1010.2
20260510030403 64 197 0.0 3.0 0.00 0.00 0.00 1009.5
20260510025903 64 220 1.0 3.0 0.00 0.00 0.00 1009.5
20260510025403 64 252 1.0 4.0 0.00 0.00 0.00 1009.5
20260510024923 64 212 1.0 6.0 0.00 0.00 0.00 1009.5
20260510024403 64 259 1.0 6.0 0.00 0.00 0.00 1009.2
20260510023903 64 178 0.0 5.0 0.00 0.00 0.00 1008.8
20260510023403 65 206 0.0 9.0 0.00 0.00 0.00 1009.5
20260510022924 65 261 2.0 9.0 0.00 0.00 0.00 1009.2
20260510022403 65 257 1.0 3.0 0.00 0.00 0.00 1009.2
20260510021903 65 262 0.0 4.0 0.00 0.00 0.00 1009.9
20260510021424 66 235 2.0 7.0 0.00 0.00 0.00 1009.5
20260510020903 66 247 0.0 7.0 0.00 0.00 0.00 1009.2
20260510020403 66 217 0.0 5.0 0.00 0.00 0.00 1009.2
20260510015903 66 149 1.0 5.0 0.00 0.00 0.00 1008.5
20260510015424 66 219 1.0 5.0 0.00 0.00 0.00 1008.8
20260510014903 67 214 1.0 4.0 0.00 0.00 0.00 1008.5
20260510014403 67 226 1.0 4.0 0.00 0.00 0.00 1008.5
20260510013924 67 206 2.0 4.0 0.00 0.00 0.00 1008.8
20260510013402 67 256 1.0 4.0 0.00 0.00 0.00 1008.5
20260510012903 67 223 2.0 6.0 0.00 0.00 0.00 1008.2
20260510012403 67 225 0.0 9.0 0.00 0.00 0.00 1008.8
20260510011903 67 212 1.0 9.0 0.00 0.00 0.00 1008.5
20260510011403 67 186 0.0 2.0 0.00 0.00 0.00 1008.8
20260510010924 67 202 0.0 3.0 0.00 0.00 0.00 1009.2
20260510010403 67 215 2.0 3.0 0.00 0.00 0.00 1009.2
20260510005903 67 213 0.0 3.0 0.00 0.00 0.00 1007.8
20260510005403 67 226 0.0 3.0 0.00 0.00 0.00 1007.8
20260510004903 68 237 0.0 4.0 0.00 0.00 0.00 1007.5
20260510004402 68 16 0.0 4.0 0.00 0.00 0.00 1007.8
20260510003903 68 209 0.0 2.0 0.00 0.00 0.00 1007.8
20260510003403 68 211 1.0 3.0 0.00 0.00 0.00 1008.2
20260510002903 69 303 0.0 3.0 0.00 0.00 0.00 1007.8
20260510002403 69 215 1.0 4.0 0.00 0.00 0.00 1007.5
20260510001924 69 202 1.0 4.0 0.00 0.00 0.00 1007.8
20260510001403 69 208 2.0 7.0 0.00 0.00 0.00 1007.1
20260510000903 70 246 2.0 7.0 0.00 0.00 0.00 1007.8
20260510000404 70 226 2.0 9.0 0.00 0.00 0.00 1007.5
20260509235903 71 253 3.0 9.0 0.00 0.00 0.00 1007.1
20260509235403 71 213 2.0 7.0 0.00 0.00 0.00 1007.1
20260509234945 71 212 1.0 9.0 0.00 0.00 0.00 1007.1
20260509234403 71 246 4.0 9.0 0.00 0.00 0.00 1007.5
20260509233904 71 232 3.0 9.0 0.00 0.00 0.00 1007.1
20260509233403 72 235 3.0 9.0 0.00 0.00 0.00 1007.5
20260509232903 72 217 4.0 9.0 0.00 0.00 0.00 1007.1
20260509232403 73 207 3.0 12.0 0.00 0.00 0.00 1007.1
20260509231903 73 202 2.0 14.0 0.00 0.00 0.00 1006.5
20260509231403 73 268 5.0 14.0 0.00 0.00 0.00 1007.1
20260509230903 73 218 3.0 8.0 0.00 0.00 0.00 1006.8
20260509230402 73 224 3.0 11.0 0.00 0.00 0.00 1006.8
20260509225903 74 229 4.0 12.0 0.00 0.00 0.00 1006.5
20260509225403 74 281 6.0 12.0 0.00 0.00 0.00 1006.5
20260509224903 74 230 2.0 12.0 0.00 0.00 0.00 1006.5
20260509224403 73 271 6.0 12.0 0.00 0.00 0.00 1006.8
20260509223903 74 224 4.0 10.0 0.00 0.00 0.00 1006.8
20260509223403 74 198 3.0 12.0 0.00 0.00 0.00 1007.1
20260509222945 74 239 5.0 12.0 0.00 0.00 0.00 1006.8
20260509222424 73 198 3.0 10.0 0.00 0.00 0.00 1006.8
20260509221903 72 229 5.0 10.0 0.00 0.00 0.00 1006.5
20260509221445 72 207 3.0 7.0 0.00 0.00 0.00 1006.8
20260509220903 72 207 3.0 8.0 0.00 0.00 0.00 1006.5
20260509220403 72 206 4.0 12.0 0.00 0.00 0.00 1006.1
20260509215904 72 231 5.0 12.0 0.00 0.00 0.00 1006.5
20260509215403 73 205 5.0 13.0 0.00 0.00 0.00 1006.1
20260509214945 73 208 2.0 13.0 0.00 0.00 0.00 1006.1
20260509213403 73 212 3.0 9.0 0.00 0.00 0.00 1006.5
20260509212903 72 197 4.0 9.0 0.00 0.00 0.00 1006.5
20260509212403 72 212 4.0 10.0 0.00 0.00 0.00 1006.8
20260509211903 72 214 4.0 10.0 0.00 0.00 0.00 1007.5
20260509211403 72 198 3.0 7.0 0.00 0.00 0.00 1006.5
20260509210924 73 220 3.0 7.0 0.00 0.00 0.00 1006.5
20260509210403 73 210 3.0 7.0 0.00 0.00 0.00 1006.1
20260509205403 72 220 2.0 10.0 0.00 0.00 0.00 1006.8
20260509204924 72 210 3.0 10.0 0.00 0.00 0.00 1006.8
20260509204403 72 194 3.0 12.0 0.00 0.00 0.00 1006.8
20260509203903 72 198 4.0 12.0 0.00 0.00 0.00 1007.5
20260509203403 71 195 5.0 12.0 0.00 0.00 0.00 1007.1
20260509202924 71 203 5.0 12.0 0.00 0.00 0.00 1006.8
20260509202425 71 192 4.0 10.0 0.00 0.00 0.00 1007.1
20260509201903 71 192 4.0 10.0 0.00 0.00 0.00 1006.5
20260509201403 71 193 5.0 9.0 0.00 0.00 0.00 1006.8
20260509200903 71 198 4.0 9.0 0.00 0.00 0.00 1007.1
20260509200403 71 210 4.0 11.0 0.00 0.00 0.00 1006.5
20260509195904 70 198 4.0 11.0 0.00 0.00 0.00 1006.8
20260509195403 70 190 5.0 9.0 0.00 0.00 0.00 1007.1
20260509194924 71 198 4.0 9.0 0.00 0.00 0.00 1006.8
20260509194403 70 206 3.0 9.0 0.00 0.00 0.00 1007.8
20260509193903 70 199 3.0 8.0 0.00 0.00 0.00 1007.1
20260509193403 70 190 4.0 9.0 0.00 0.00 0.00 1007.1
20260509192903 70 211 3.0 9.0 0.00 0.00 0.00 1007.8
20260509192403 70 194 4.0 12.0 0.00 0.00 0.00 1006.8
20260509191903 69 239 5.0 12.0 0.00 0.00 0.00 1007.1
20260509191424 69 210 4.0 12.0 0.00 0.00 0.00 1007.8
20260509190924 69 236 5.0 12.0 0.00 0.00 0.00 1007.5
20260509190425 69 209 4.0 12.0 0.00 0.00 0.00 1007.8
20260509185902 69 204 5.0 12.0 0.00 0.00 0.00 1007.5
20260509185403 69 215 3.0 12.0 0.00 0.00 0.00 1007.8
20260509184903 69 273 6.0 12.0 0.00 0.00 0.00 1007.5
20260509184403 69 202 4.0 12.0 0.00 0.00 0.00 1007.5
20260509183903 68 219 2.0 14.0 0.00 0.00 0.00 1007.1
20260509183403 68 270 6.0 14.0 0.00 0.00 0.00 1007.1
20260509182903 69 237 4.0 10.0 0.00 0.00 0.00 1007.5
20260509182403 68 204 3.0 10.0 0.00 0.00 0.00 1007.5
20260509181903 68 258 2.0 7.0 0.00 0.00 0.00 1007.5
20260509181402 68 207 3.0 10.0 0.00 0.00 0.00 1007.5
20260509180903 68 208 3.0 10.0 0.00 0.00 0.00 1008.2
20260509180425 68 216 3.0 10.0 0.00 0.00 0.00 1007.1
20260509175903 67 233 2.0 12.0 0.00 0.00 0.00 1007.8
20260509175403 67 287 4.0 12.0 0.00 0.00 0.00 1007.5
20260509174903 66 261 4.0 10.0 0.00 0.00 0.00 1007.1
20260509174403 67 226 3.0 10.0 0.00 0.00 0.00 1007.5
20260509173903 67 205 4.0 10.0 0.00 0.00 0.00 1007.8
20260509173403 67 207 4.0 8.0 0.00 0.00 0.00 1007.8
20260509172903 66 270 4.0 8.0 0.00 0.00 0.00 1007.5
20260509172403 67 215 4.0 10.0 0.00 0.00 0.00 1007.5
20260509171903 66 190 3.0 10.0 0.00 0.00 0.00 1007.8
20260509171403 66 232 4.0 12.0 0.00 0.00 0.00 1007.8
20260509170924 65 273 7.0 12.0 0.00 0.00 0.00 1007.8
20260509170404 65 240 5.0 9.0 0.00 0.00 0.00 1007.5
20260509165903 65 218 3.0 16.0 0.00 0.00 0.00 1007.8
20260509165403 64 263 5.0 16.0 0.00 0.00 0.00 1007.8
20260509164925 65 253 4.0 11.0 0.00 0.00 0.00 1007.8
20260509164424 65 216 3.0 10.0 0.00 0.00 0.00 1007.8
20260509163903 64 249 4.0 15.0 0.00 0.00 0.00 1007.8
20260509163403 64 260 6.0 15.0 0.00 0.00 0.00 1008.5
20260509161903 64 257 4.0 13.0 0.00 0.00 0.00 1007.8
20260509161402 64 273 5.0 12.0 0.00 0.00 0.00 1008.2
20260509160903 64 286 5.0 12.0 0.00 0.00 0.00 1008.2
20260509160424 64 205 2.0 11.0 0.00 0.00 0.00 1007.5
20260509155903 64 210 4.0 11.0 0.00 0.00 0.00 1007.1
20260509155403 63 202 3.0 7.0 0.00 0.00 0.00 1007.1
20260509154903 62 201 3.0 10.0 0.00 0.00 0.00 1008.2
20260509154403 61 276 5.0 10.0 0.00 0.00 0.00 1007.5
20260509153903 62 260 3.0 7.0 0.00 0.00 0.00 1008.2
20260509153403 61 200 2.0 12.0 0.00 0.00 0.00 1007.5
20260509152903 61 227 3.0 12.0 0.00 0.00 0.00 1007.1
20260509152404 62 238 3.0 8.0 0.00 0.00 0.00 1007.5
20260509151903 61 247 4.0 7.0 0.00 0.00 0.00 1007.5
20260509151403 61 217 2.0 6.0 0.00 0.00 0.00 1007.5
20260509150903 60 211 2.0 7.0 0.00 0.00 0.00 1007.5
20260509150402 60 254 3.0 9.0 0.00 0.00 0.00 1007.5
20260509145903 60 276 5.0 9.0 0.00 0.00 0.00 1007.8
20260509145423 60 259 2.0 10.0 0.00 0.00 0.00 1007.1
20260509144903 59 289 6.0 10.0 0.00 0.00 0.00 1007.8
20260509144403 60 261 2.0 6.0 0.00 0.00 0.00 1007.8
20260509143924 60 204 3.0 5.0 0.00 0.00 0.00 1006.8
20260509143403 60 205 3.0 6.0 0.00 0.00 0.00 1006.8
20260509142903 59 169 3.0 6.0 0.00 0.00 0.00 1007.5
20260509142424 59 220 2.0 6.0 0.00 0.00 0.00 1007.5
20260509141924 59 184 3.0 7.0 0.00 0.00 0.00 1007.5
20260509141403 59 221 3.0 7.0 0.00 0.00 0.00 1007.1
20260509140903 58 188 3.0 7.0 0.00 0.00 0.00 1007.5
20260509140424 58 196 3.0 6.0 0.00 0.00 0.00 1007.1
20260509135903 57 234 1.0 4.0 0.00 0.00 0.00 1007.8
20260509135403 57 207 2.0 8.0 0.00 0.00 0.00 1006.8
20260509134926 57 225 2.0 8.0 0.00 0.00 0.00 1007.1
20260509133404 57 200 3.0 6.0 0.00 0.00 0.00 1007.1
20260509132925 58 189 2.0 5.0 0.00 0.00 0.00 1007.1
20260509132403 57 242 1.0 5.0 0.00 0.00 0.00 1007.1
20260509131903 56 204 2.0 5.0 0.00 0.00 0.00 1007.5
20260509131402 57 228 1.0 6.0 0.00 0.00 0.00 1007.5
20260509130903 56 236 0.0 6.0 0.00 0.00 0.00 1007.1
20260509130403 56 266 2.0 6.0 0.00 0.00 0.00 1007.1
20260509125903 56 268 1.0 6.0 0.00 0.00 0.00 1008.2
20260509125403 56 276 2.0 6.0 0.00 0.00 0.00 1007.8
20260509124944 55 204 0.0 6.0 0.00 0.00 0.00 1007.5
20260509124403 55 243 2.0 3.0 0.00 0.00 0.00 1007.8
20260509123924 55 285 1.0 6.0 0.00 0.00 0.00 1007.1
20260509123424 55 270 0.0 6.0 0.00 0.00 0.00 1007.5
20260509122903 54 246 1.0 5.0 0.00 0.00 0.00 1007.5
20260509122403 54 296 2.0 7.0 0.00 0.00 0.00 1007.5
20260509121903 54 272 1.0 7.0 0.00 0.00 0.00 1007.1
20260509121403 54 219 0.0 6.0 0.00 0.00 0.00 1007.1
20260509120903 54 231 1.0 6.0 0.00 0.00 0.00 1006.8
20260509120403 54 245 1.0 6.0 0.00 0.00 0.00 1007.1
20260509115903 54 205 0.0 6.0 0.00 0.00 0.00 1006.8
20260509115424 54 189 0.0 6.0 0.00 0.00 0.00 1007.1
20260509114903 54 248 1.0 6.0 0.00 0.00 0.00 1007.1
20260509114403 54 226 0.0 6.0 0.00 0.00 0.00 1006.8
20260509113903 54 284 0.0 6.0 0.00 0.00 0.00 1006.5
20260509113403 54 190 0.0 6.0 0.00 0.00 0.00 1007.5
20260509112903 54 178 1.0 6.0 0.00 0.00 0.00 1007.1
20260509112403 54 207 1.0 6.0 0.00 0.00 0.00 1006.8
20260509111903 54 228 0.0 6.0 0.00 0.00 0.00 1007.1
20260509111403 54 208 1.0 6.0 0.00 0.00 0.00 1007.8
20260509110903 54 249 1.0 6.0 0.00 0.00 0.00 1007.5
20260509110403 53 237 0.0 6.0 0.00 0.00 0.00 1007.5
20260509105924 53 234 0.0 6.0 0.00 0.00 0.00 1007.5
20260509105403 53 266 0.0 6.0 0.00 0.00 0.00 1007.5
20260509104903 53 263 0.0 5.0 0.00 0.00 0.00 1007.5
20260509104403 53 264 1.0 5.0 0.00 0.00 0.00 1006.8
20260509102904 53 197 2.0 3.0 0.00 0.00 0.00 1006.8
20260509102403 53 210 2.0 3.0 0.00 0.00 0.00 1007.5
20260509101902 53 201 2.0 5.0 0.00 0.00 0.00 1006.8
20260509101403 53 204 3.0 5.0 0.00 0.00 0.00 1007.5
20260509100903 53 204 3.0 4.0 0.00 0.00 0.00 1007.5
20260509100403 53 206 1.0 5.0 0.00 0.00 0.00 1007.5
20260509095903 53 200 3.0 5.0 0.00 0.00 0.00 1007.1
20260509095403 53 202 2.0 4.0 0.00 0.00 0.00 1007.1
20260509094904 53 193 2.0 4.0 0.00 0.00 0.00 1007.8
20260509094403 53 192 2.0 3.0 0.00 0.00 0.00 1007.5
20260509093903 53 191 2.0 3.0 0.00 0.00 0.00 1007.5
20260509092402 53 198 1.0 3.0 0.00 0.00 0.00 1007.8
20260509091903 53 199 1.0 3.0 0.00 0.00 0.00 1007.5
20260509091403 53 191 0.0 6.0 0.00 0.00 0.00 1007.5
20260509090903 53 212 0.0 6.0 0.00 0.00 0.00 1007.8
20260509090403 53 209 2.0 3.0 0.00 0.00 0.00 1007.8
20260509085903 53 235 0.0 10.0 0.00 0.00 0.00 1008.2
20260509085403 53 235 1.0 10.0 0.00 0.00 0.00 1008.8
20260509084903 54 250 2.0 5.0 0.00 0.00 0.00 1008.5
20260509084402 54 224 2.0 7.0 0.00 0.00 0.00 1007.8
20260509083924 54 254 3.0 9.0 0.00 0.00 0.00 1008.2
20260509083424 54 236 2.0 9.0 0.00 0.00 0.00 1008.5
20260509082903 54 236 0.0 6.0 0.00 0.00 0.00 1008.5
20260509082403 54 227 1.0 6.0 0.00 0.00 0.00 1008.8
20260509081903 54 217 0.0 6.0 0.00 0.00 0.00 1008.5
20260509081403 54 213 0.0 5.0 0.00 0.00 0.00 1008.8
20260509080903 54 270 1.0 4.0 0.00 0.00 0.00 1008.5
20260509080404 54 225 1.0 6.0 0.00 0.00 0.00 1008.8
20260509075903 54 204 0.0 6.0 0.00 0.00 0.00 1007.8
20260509075403 54 215 0.0 6.0 0.00 0.00 0.00 1008.5
20260509074903 54 207 0.0 5.0 0.00 0.00 0.00 1008.2
20260509074424 54 207 0.0 6.0 0.00 0.00 0.00 1008.2
20260509073903 54 267 1.0 6.0 0.00 0.00 0.00 1008.8
20260509073403 54 264 2.0 5.0 0.00 0.00 0.00 1008.8
20260509072903 54 246 1.0 7.0 0.00 0.00 0.00 1008.8
20260509072403 54 270 2.0 7.0 0.00 0.00 0.00 1008.5
20260509071903 54 261 1.0 8.0 0.00 0.00 0.00 1008.8
20260509071402 54 272 3.0 8.0 0.00 0.00 0.00 1008.8
20260509070903 54 257 3.0 10.0 0.00 0.00 0.00 1009.2
20260509070403 54 262 3.0 10.0 0.00 0.00 0.00 1009.2
20260509065903 54 234 1.0 8.0 0.00 0.00 0.00 1009.5
20260509065403 54 233 1.0 12.0 0.00 0.00 0.00 1009.2
20260509064903 54 261 3.0 12.0 0.00 0.00 0.00 1009.9
20260509064403 54 234 0.0 7.0 0.00 0.00 0.00 1009.5
20260509063903 54 260 1.0 6.0 0.00 0.00 0.00 1009.2
20260509063424 54 251 0.0 6.0 0.00 0.00 0.00 1009.2
20260509062903 54 249 1.0 7.0 0.00 0.00 0.00 1009.9
20260509062403 54 255 2.0 7.0 0.00 0.00 0.00 1009.2
20260509061903 54 274 2.0 7.0 0.00 0.00 0.00 1008.8
20260509061404 54 202 0.0 5.0 0.00 0.00 0.00 1009.2
20260509060903 54 269 1.0 5.0 0.00 0.00 0.00 1009.9
20260509060403 54 237 0.0 4.0 0.00 0.00 0.00 1009.2
20260509055903 54 257 1.0 6.0 0.00 0.00 0.00 1009.2
20260509055403 55 270 0.0 6.0 0.00 0.00 0.00 1009.9
20260509054903 54 228 1.0 6.0 0.00 0.00 0.00 1009.5
20260509054403 54 267 0.0 6.0 0.00 0.00 0.00 1009.5
20260509053902 54 254 0.0 6.0 0.00 0.00 0.00 1009.5
20260509053403 54 259 1.0 6.0 0.00 0.00 0.00 1009.9
20260509052903 54 253 1.0 6.0 0.00 0.00 0.00 1009.5
20260509052424 54 266 1.0 6.0 0.00 0.00 0.00 1009.9
20260509051903 54 252 1.0 6.0 0.00 0.00 0.00 1010.2
20260509051424 54 273 2.0 6.0 0.00 0.00 0.00 1009.9
20260509050924 54 268 1.0 6.0 0.00 0.00 0.00 1010.2
20260509050403 54 277 0.0 6.0 0.00 0.00 0.00 1010.2